Campo, CA

8:09 PM PST on December 13, 2019 (GMT -0800)
Campo

Weather History for KCZZ - August, 2019

Change the Weather History Date:

Tuesday, August 27, 2019

  Actual Average Record
Temperature  
Mean Temperature 78 °F 73 °F  
Max Temperature 96 °F 94 °F 105 °F (1981)
Min Temperature 60 °F 52 °F 35 °F (1954)
Degree Days  
Heating Degree Days 0 0  
Month to date heating degree days 0 0  
Since 1 June heating degree days 42 63  
Since 1 July heating degree days 6 7  
Cooling Degree Days 13 8  
Month to date cooling degree days 268 242  
Year to date cooling degree days 596 614  
Since 1 June cooling degree days 594 584  
Growing Degree Days 28 (Base 50)    
Moisture  
Dew Point 50 °F    
Average Humidity 40    
Maximum Humidity 63    
Minimum Humidity 17    
Precipitation  
Precipitation 0.00 in 0.02 in 1.16 in (2003)
Month to date precipitation 0.00 0.62  
Year to date precipitation 12.82 11.09  
Sea Level Pressure  
Sea Level Pressure 29.79 in    
Wind  
Wind Speed 8 mph (South)    
Max Wind Speed 20 mph    
Max Gust Speed 25 mph    
T = Trace of Precipitation, MM = Missing Value Source: NWS Daily Summary

Daily Weather History Graph

Daily Weather History Graph

Search for Another Location

Airport or City:

Astronomy

Aug. 27, 2019 Rise Set
Actual Time 6:17 AM PDT 7:16 PM PDT
Civil Twilight 5:52 AM PDT 7:42 PM PDT
Nautical Twilight 5:22 AM PDT 8:12 PM PDT
Astronomical Twilight 4:51 AM PDT 8:42 PM PDT
Moon 2:58 AM PDT (8/27) 5:30 PM PDT (8/27)
Length of Visible Light 13h 50m
Length of Day
12h 59m
Waning Crescent, 10% of the Moon is Illuminated
Aug 27
Waning Crescent
Aug 30
New
Sep 5
First Quarter
Sep 13
Full
Sep 21
Last Quarter

Hourly Weather History & Observations

Time (PDT) Temp. Heat Index Dew Point Humidity Pressure Visibility Wind Dir Wind Speed Gust Speed Precip Events Conditions
1:52 AM 64.0 °F - 45.0 °F 50% 29.79 in - ENE 5.8 mph - N/A   Unknown
2:52 AM 63.0 °F - 45.0 °F 52% 29.78 in - NE 5.8 mph - N/A   Unknown
3:52 AM 62.1 °F - 45.0 °F 53% 29.78 in - NE 4.6 mph - N/A   Unknown
4:52 AM 62.1 °F - 45.0 °F 53% 29.78 in - NE 4.6 mph - N/A   Unknown
5:52 AM 60.1 °F - 45.0 °F 57% 29.79 in - NE 5.8 mph - N/A   Unknown
6:52 AM 61.0 °F - 46.0 °F 58% 29.81 in - NE 5.8 mph - N/A   Unknown
7:52 AM 73.0 °F - 46.9 °F 39% 29.81 in - Calm Calm - N/A   Unknown
8:52 AM 82.0 °F - 43.0 °F 25% 29.80 in - Calm Calm - N/A   Unknown
9:52 AM 87.1 °F - 43.0 °F 21% 29.80 in - WSW 5.8 mph - N/A   Unknown
10:52 AM 91.9 °F - 43.0 °F 18% 29.79 in - SW 9.2 mph - N/A   Unknown
11:52 AM 93.9 °F - 45.0 °F 18% 29.78 in - SSW 13.8 mph - N/A   Unknown
12:52 PM 95.0 °F - 45.0 °F 18% 29.76 in - SSW 19.6 mph 25.3 mph N/A   Unknown
1:52 PM 96.1 °F - 52.0 °F 22% 29.75 in - SSW 17.3 mph - N/A   Unknown
2:52 PM 93.9 °F 92.6 °F 57.0 °F 29% 29.75 in - SW 18.4 mph - N/A   Unknown
3:52 PM 91.9 °F 90.6 °F 57.0 °F 31% 29.75 in - SW 17.3 mph - N/A   Unknown
4:52 PM 89.1 °F 87.3 °F 55.9 °F 32% 29.76 in - SW 16.1 mph - N/A   Unknown
5:52 PM 84.0 °F 83.0 °F 55.9 °F 38% 29.78 in - SSW 12.7 mph - N/A   Unknown
6:52 PM 80.1 °F 80.2 °F 55.9 °F 43% 29.79 in - SSW 10.4 mph - N/A   Unknown
7:52 PM 75.9 °F - 55.0 °F 48% 29.80 in - SSW 6.9 mph - N/A   Unknown
8:52 PM 73.0 °F - 55.9 °F 55% 29.81 in - Calm Calm - N/A   Unknown
9:52 PM 69.1 °F - 53.1 °F 57% 29.83 in - NE 3.5 mph - N/A   Unknown
10:52 PM 69.1 °F - 53.1 °F 57% 29.82 in - ENE 3.5 mph - N/A   Unknown
11:52 PM 64.9 °F - 52.0 °F 63% 29.82 in - NE 4.6 mph - N/A   Unknown